Location: Pasadena-CA
(34.1440°N, 118.1100°W)
Time: 07:06:07
(UTC-07:00)

BlueWalker 3 - Pass Details

Date: 02 March 2024
Orbit: 485 x 495 km, 53.2° (Epoch: 25 April)

Event Time Altitude Azimuth Distance (km) Brightness Sun altitude
Rises 19:02:41 0° 329° (NNW) 2,555 6.0 -15.8°
Reaches altitude 10° 19:05:30 10° 351° (N) 1,670 4.7 -16.4°
Enters shadow 19:07:54 16° 31° (NNE) 1,322 3.8 -16.9°
